CW9366 Weather Reports


Display with metric or nautical units.
time (UTC)temp
F
wind
direction
speed
MPH
gust
MPH
rain 1hr
in
rain 24hr
in
rain mn
in
humidity
%
barometer
mb
20260504151003 64 172 1.0 10.0 0.00 0.00 0.00 70 1004.2
20260504150503 64 167 2.0 10.0 0.00 0.00 0.00 70 1004.0
20260504141003 65 196 0.0 3.0 0.00 0.00 0.00 64 1005.4
20260504140503 66 184 0.0 4.0 0.00 0.00 0.00 63 1005.4
20260504130503 65 0 0.0 0.0 0.00 0.00 0.00 66 1005.8
20260504120213 60 0 0.0 0.0 0.00 0.00 0.00 72 1006.2
20260504110715 56 0 0.0 0.0 0.00 0.00 0.00 80 1005.8
20260504100503 60 0 0.0 0.0 0.00 0.00 0.00 71 1006.4
20260504082003 60 0 0.0 0.0 0.00 0.00 0.00 71 1006.1
20260504081503 60 0 0.0 0.0 0.00 0.00 0.00 70 1006.3
20260504081003 60 0 0.0 0.0 0.00 0.00 0.00 70 1006.2
20260504080504 60 0 0.0 0.0 0.00 0.00 0.00 69 1006.3
20260504080215 60 0 0.0 0.0 0.00 0.00 0.00 69 1006.3
20260504050503 63 0 0.0 0.0 0.00 0.00 0.00 67 1006.5
20260504050005 63 0 0.0 0.0 0.00 0.00 0.00 67 1006.5
20260504045503 63 0 0.0 0.0 0.00 0.00 0.00 67 1006.4
20260504045003 63 0 0.0 0.0 0.00 0.00 0.00 67 1006.3
20260504044504 62 0 0.0 0.0 0.00 0.00 0.00 68 1006.4
20260504044003 62 0 0.0 0.0 0.00 0.00 0.00 67 1006.4
20260504043717 63 0 0.0 0.0 0.00 0.00 0.00 67 1006.3
20260504043215 63 0 0.0 0.0 0.00 0.00 0.00 67 1006.5
20260504042504 63 0 0.0 0.0 0.00 0.00 0.00 68 1006.6
20260504042003 63 0 0.0 0.0 0.00 0.00 0.00 67 1006.7
20260504041503 64 0 0.0 0.0 0.00 0.00 0.00 66 1006.8
20260504041003 64 0 0.0 0.0 0.00 0.00 0.00 65 1007.1
20260504040503 65 0 0.0 0.0 0.00 0.00 0.00 64 1007.2
20260504040004 66 0 0.0 0.0 0.00 0.00 0.00 62 1007.2
20260504035503 66 0 0.0 0.0 0.00 0.00 0.00 63 1007.2
20260504035003 67 0 0.0 0.0 0.00 0.00 0.00 61 1007.3
20260504034503 68 0 0.0 0.0 0.00 0.00 0.00 59 1007.6
20260504034214 68 0 0.0 0.0 0.00 0.00 0.00 57 1007.3
20260504033718 68 0 0.0 0.0 0.00 0.00 0.00 55 1007.2
20260504033003 69 0 0.0 0.0 0.00 0.00 0.00 54 1007.1
20260504032503 69 0 0.0 0.0 0.00 0.00 0.00 55 1006.8
20260504032003 69 0 0.0 0.0 0.00 0.00 0.00 56 1007.2
20260504031714 69 0 0.0 0.0 0.00 0.00 0.00 56 1007.1
20260504031003 68 0 0.0 0.0 0.00 0.00 0.00 57 1007.2
20260504030503 68 0 0.0 0.0 0.00 0.00 0.00 59 1007.1
20260504030004 67 0 0.0 0.0 0.00 0.00 0.00 59 1007.3
20260504025503 67 0 0.0 0.0 0.00 0.00 0.00 60 1007.3
20260504025003 67 0 0.0 0.0 0.00 0.00 0.00 61 1007.2
20260504024503 67 0 0.0 0.0 0.00 0.00 0.00 62 1007.2
20260504024003 66 0 0.0 0.0 0.00 0.00 0.00 64 1007.2
20260504023503 66 0 0.0 0.0 0.00 0.00 0.00 67 1007.1
20260504023003 66 0 0.0 0.0 0.00 0.00 0.00 67 1007.1
20260504022714 66 0 0.0 0.0 0.00 0.00 0.00 67 1007.2
20260504022003 66 0 0.0 0.0 0.00 0.00 0.00 67 1007.2
20260504021503 66 0 0.0 0.0 0.00 0.00 0.00 66 1007.2
20260504021003 66 0 0.0 0.0 0.00 0.00 0.00 66 1007.2
20260504020716 66 0 0.0 0.0 0.00 0.00 0.00 67 1007.1
20260504020003 67 0 0.0 0.0 0.00 0.00 0.00 65 1007.0
20260504015503 67 0 0.0 0.0 0.00 0.00 0.00 64 1007.1
20260504015003 67 0 0.0 0.0 0.00 0.00 0.00 64 1007.1
20260504014503 68 0 0.0 0.0 0.00 0.00 0.00 62 1007.1
20260504014216 68 0 0.0 0.0 0.00 0.00 0.00 62 1007.1
20260504013503 68 0 0.0 0.0 0.00 0.00 0.00 60 1007.1
20260504013003 69 0 0.0 0.0 0.00 0.00 0.00 58 1007.1
20260504012503 70 0 0.0 0.0 0.00 0.00 0.00 56 1007.1
20260504012213 70 0 0.0 0.0 0.00 0.00 0.00 55 1007.1
20260504011716 70 0 0.0 0.0 0.00 0.00 0.00 54 1007.0
20260504011003 71 0 0.0 0.0 0.00 0.00 0.00 53 1006.9
20260504010717 71 0 0.0 0.0 0.00 0.00 0.00 52 1006.9
20260504010004 72 0 0.0 0.0 0.00 0.00 0.00 50 1006.7
20260504005503 72 0 0.0 0.0 0.00 0.00 0.00 49 1006.8
20260504005004 73 0 0.0 0.0 0.00 0.00 0.00 49 1006.8
20260504004713 73 0 0.0 0.0 0.00 0.00 0.00 49 1006.7
20260504004003 74 0 0.0 0.0 0.00 0.00 0.00 48 1006.7
20260504003503 74 0 0.0 0.0 0.00 0.00 0.00 48 1006.6
20260504003003 75 0 0.0 0.0 0.00 0.00 0.00 45 1006.5
20260504002503 75 0 0.0 0.0 0.00 0.00 0.00 44 1006.6
20260504002003 75 0 0.0 0.0 0.00 0.00 0.00 43 1006.6
20260504001503 76 0 0.0 0.0 0.00 0.00 0.00 43 1006.6
20260504001003 76 0 0.0 0.0 0.00 0.00 0.00 45 1006.6
20260504000503 76 0 0.0 0.0 0.00 0.00 0.00 43 1006.7
20260504000004 76 0 0.0 0.0 0.00 0.00 0.00 44 1006.7
20260503235503 76 0 0.0 0.0 0.00 0.00 0.00 43 1006.7
20260503235004 76 0 0.0 0.0 0.00 0.00 0.00 41 1006.8
20260503234503 76 0 0.0 0.0 0.00 0.00 0.00 40 1006.7
20260503234003 77 0 0.0 0.0 0.00 0.00 0.00 41 1006.8
20260503233503 77 192 0.0 6.0 0.00 0.00 0.00 40 1006.8
20260503233003 77 212 0.0 6.0 0.00 0.00 0.00 39 1006.9
20260503232503 77 249 1.0 8.0 0.00 0.00 0.00 40 1006.8
20260503232003 77 258 1.0 8.0 0.00 0.00 0.00 40 1006.8
20260503231504 77 247 2.0 8.0 0.00 0.00 0.00 38 1006.9
20260503231003 77 247 2.0 9.0 0.00 0.00 0.00 38 1006.9
20260503230713 78 263 1.0 9.0 0.00 0.00 0.00 37 1007.0
20260503230004 78 238 3.0 15.0 0.00 0.00 0.00 37 1007.0
20260503225503 79 245 4.0 15.0 0.00 0.00 0.00 36 1007.0
20260503225003 80 256 3.0 14.0 0.00 0.00 0.00 37 1007.0
20260503224503 79 251 2.0 9.0 0.00 0.00 0.00 38 1007.0
20260503224003 79 253 4.0 14.0 0.00 0.00 0.00 35 1007.1
20260503223503 80 262 4.0 14.0 0.00 0.00 0.00 36 1007.2
20260503223004 80 260 4.0 10.0 0.00 0.00 0.00 36 1007.1
20260503222717 79 246 3.0 10.0 0.00 0.00 0.00 36 1007.2
20260503222003 78 249 4.0 14.0 0.00 0.00 0.00 36 1007.1
20260503221503 79 243 5.0 14.0 0.00 0.00 0.00 35 1007.4
20260503221003 79 252 5.0 12.0 0.00 0.00 0.00 35 1007.2
20260503220713 79 265 5.0 12.0 0.00 0.00 0.00 35 1007.4
20260503220004 79 257 4.0 11.0 0.00 0.00 0.00 35 1007.4
20260503215503 79 260 5.0 12.0 0.00 0.00 0.00 35 1007.5
20260503215003 79 253 6.0 12.0 0.00 0.00 0.00 34 1007.7
20260503214503 79 245 5.0 12.0 0.00 0.00 0.00 34 1007.8
20260503214003 79 237 5.0 12.0 0.00 0.00 0.00 34 1007.7
20260503213503 79 242 5.0 12.0 0.00 0.00 0.00 35 1007.8
20260503213003 79 257 6.0 19.0 0.00 0.00 0.00 33 1007.7
20260503212503 78 255 6.0 19.0 0.00 0.00 0.00 35 1007.9
20260503212003 78 256 6.0 17.0 0.00 0.00 0.00 34 1007.8
20260503211503 78 260 5.0 16.0 0.00 0.00 0.00 34 1008.0
20260503211004 79 250 3.0 18.0 0.00 0.00 0.00 36 1008.0
20260503210503 78 234 4.0 18.0 0.00 0.00 0.00 38 1008.0
20260503210217 77 239 6.0 18.0 0.00 0.00 0.00 37 1008.2
20260503205503 77 252 5.0 14.0 0.00 0.00 0.00 34 1008.3
20260503205213 77 245 5.0 14.0 0.00 0.00 0.00 35 1008.2
20260503204503 77 218 6.0 15.0 0.00 0.00 0.00 34 1008.4
20260503204003 77 211 4.0 15.0 0.00 0.00 0.00 35 1008.4
20260503203503 77 211 3.0 12.0 0.00 0.00 0.00 36 1008.4
20260503203003 76 208 3.0 12.0 0.00 0.00 0.00 36 1008.5
20260503202503 76 209 4.0 15.0 0.00 0.00 0.00 34 1008.6
20260503202003 76 210 6.0 15.0 0.00 0.00 0.00 37 1008.6
20260503201503 75 209 6.0 17.0 0.00 0.00 0.00 37 1008.6
20260503201003 75 209 6.0 17.0 0.00 0.00 0.00 36 1008.8
20260503200715 75 218 5.0 17.0 0.00 0.00 0.00 36 1008.9
20260503200003 75 189 5.0 22.0 0.00 0.00 0.00 39 1008.9
20260503195503 75 193 5.0 22.0 0.00 0.00 0.00 36 1009.2
20260503195004 75 200 4.0 15.0 0.00 0.00 0.00 37 1009.2
20260503194717 75 205 4.0 15.0 0.00 0.00 0.00 37 1009.2
20260503194003 74 201 6.0 16.0 0.00 0.00 0.00 39 1009.5
20260503193712 74 197 7.0 20.0 0.00 0.00 0.00 37 1009.6
20260503193003 74 194 6.0 20.0 0.00 0.00 0.00 37 1009.6
20260503192503 74 202 4.0 12.0 0.00 0.00 0.00 38 1009.9
20260503192003 74 205 4.0 13.0 0.00 0.00 0.00 39 1009.9
20260503191714 74 201 5.0 14.0 0.00 0.00 0.00 38 1010.0
20260503191003 73 198 5.0 14.0 0.00 0.00 0.00 40 1010.3
20260503190503 73 190 4.0 12.0 0.00 0.00 0.00 39 1010.4
20260503190004 74 197 3.0 11.0 0.00 0.00 0.00 39 1010.6
20260503185503 73 194 3.0 13.0 0.00 0.00 0.00 41 1010.6
20260503185003 72 191 5.0 16.0 0.00 0.00 0.00 41 1010.8
20260503184503 72 198 5.0 16.0 0.00 0.00 0.00 38 1010.9
20260503184003 72 197 4.0 14.0 0.00 0.00 0.00 41 1011.0
20260503183503 72 199 3.0 11.0 0.00 0.00 0.00 39 1011.1
20260503183003 72 206 3.0 11.0 0.00 0.00 0.00 42 1011.3
20260503182714 72 215 4.0 12.0 0.00 0.00 0.00 40 1011.3
20260503182004 72 218 4.0 15.0 0.00 0.00 0.00 40 1011.5
20260503181504 71 206 5.0 17.0 0.00 0.00 0.00 42 1011.4
20260503181004 70 194 6.0 18.0 0.00 0.00 0.00 40 1011.7
20260503180716 70 188 6.0 18.0 0.00 0.00 0.00 40 1011.7
20260503180004 70 194 4.0 13.0 0.00 0.00 0.00 40 1011.6
20260503175504 70 195 5.0 18.0 0.00 0.00 0.00 41 1011.7
20260503175215 69 191 6.0 18.0 0.00 0.00 0.00 40 1011.8
20260503174503 69 192 6.0 14.0 0.00 0.00 0.00 41 1012.2
20260503174216 69 185 6.0 14.0 0.00 0.00 0.00 41 1012.4
20260503173714 69 176 6.0 18.0 0.00 0.00 0.00 43 1012.6
20260503173003 68 186 5.0 13.0 0.00 0.00 0.00 43 1012.7
20260503172504 68 194 5.0 16.0 0.00 0.00 0.00 40 1013.1
20260503172004 69 203 5.0 16.0 0.00 0.00 0.00 41 1013.4
20260503171503 68 194 4.0 11.0 0.00 0.00 0.00 44 1013.7
20260503171004 68 187 4.0 14.0 0.00 0.00 0.00 44 1013.9
20260503170504 67 197 4.0 14.0 0.00 0.00 0.00 44 1013.9